• In Czech Republic
  • List of Countries
  • For 7 days
  • Water Temperature
  • Satellite Maps
  • Weather Map
  • Weather Widgets
  • user-avatar
    Login

    Hourly Weather Prutz

    Today, 22 July, Saturday

    Time Temperature Precipitation Wind Pressure Humidity
    00:00 +13°C° 0.3 mm 2 mps 634 mmHg 90%
    01:00 +12°C° 0 mm 3 mps 634 mmHg 91%
    02:00 +13°C° 0.2 mm 2 mps 634 mmHg 91%
    03:00 +13°C° 0.2 mm 2 mps 634 mmHg 91%
    04:00 +12°C° 0.2 mm 1 mps 634 mmHg 92%
    05:00 +13°C° 0.1 mm 1 mps 634 mmHg 89%
    06:00 +14°C° 0.1 mm 1 mps 635 mmHg 87%
    07:00 +14°C° 0.1 mm 1 mps 635 mmHg 85%
    08:00 +16°C° 0.1 mm 1 mps 636 mmHg 78%
    09:00 +19°C° 0.1 mm 1 mps 636 mmHg 71%
    10:00 +20°C° 0.1 mm 1 mps 637 mmHg 64%
    11:00 +21°C° 0.3 mm 1 mps 637 mmHg 63%
    12:00 +21°C° 0.3 mm 1 mps 637 mmHg 62%
    13:00 +22°C° 0.3 mm 1 mps 637 mmHg 61%
    14:00 +22°C° 0.9 mm 1 mps 637 mmHg 63%
    15:00 +22°C° 0.9 mm 1 mps 637 mmHg 65%
    16:00 +21°C° 0.9 mm 1 mps 637 mmHg 67%
    17:00 +20°C° 1.3 mm 1 mps 636 mmHg 73%
    18:00 +19°C° 1.3 mm 1 mps 636 mmHg 79%
    19:00 +18°C° 1.3 mm 1 mps 636 mmHg 85%
    20:00 +16°C° 1.4 mm 1 mps 636 mmHg 88%
    21:00 +15°C° 1.4 mm 1 mps 636 mmHg 90%
    22:00 +14°C° 1.4 mm 1 mps 636 mmHg 93%
    23:00 +14°C° 1.1 mm 1 mps 636 mmHg 93%

    Tomorrow, 23 July, Sunday

    Time Temperature Precipitation Wind Pressure Humidity
    00:00 +14°C° 1.1 mm 1 mps 636 mmHg 93%
    01:00 +14°C° 1.1 mm 1 mps 636 mmHg 94%
    02:00 +14°C° 1 mm 1 mps 636 mmHg 94%
    03:00 +13°C° 1 mm 1 mps 636 mmHg 94%
    04:00 +13°C° 1 mm 1 mps 636 mmHg 94%
    05:00 +14°C° 0.1 mm 1 mps 636 mmHg 92%
    06:00 +14°C° 0.1 mm 1 mps 636 mmHg 90%
    07:00 +15°C° 0.1 mm 1 mps 637 mmHg 87%
    08:00 +16°C° 0.2 mm 1 mps 637 mmHg 82%
    09:00 +18°C° 0.2 mm 1 mps 637 mmHg 77%
    10:00 +19°C° 0.2 mm 1 mps 637 mmHg 71%
    11:00 +19°C° 0.4 mm 1 mps 637 mmHg 73%
    12:00 +18°C° 0.4 mm 2 mps 637 mmHg 76%
    13:00 +18°C° 0.4 mm 2 mps 637 mmHg 78%
    14:00 +17°C° 0.9 mm 2 mps 637 mmHg 80%
    15:00 +17°C° 0.9 mm 2 mps 636 mmHg 83%
    16:00 +17°C° 0.9 mm 2 mps 636 mmHg 86%
    17:00 +16°C° 0.5 mm 2 mps 636 mmHg 88%
    18:00 +16°C° 0.5 mm 1 mps 636 mmHg 90%
    19:00 +15°C° 0.5 mm 1 mps 636 mmHg 92%
    20:00 +14°C° 0.3 mm 1 mps 636 mmHg 94%
    21:00 +14°C° 0.3 mm 1 mps 635 mmHg 95%
    22:00 +13°C° 0.3 mm 1 mps 635 mmHg 97%
    23:00 +13°C° 0.3 mm 1 mps 635 mmHg 97%

    Day after tomorrow, 24 July, Monday

    Time Temperature Precipitation Wind Pressure Humidity
    00:00 +13°C° 0.3 mm 1 mps 635 mmHg 97%
    01:00 +12°C° 0.3 mm 1 mps 634 mmHg 97%
    02:00 +12°C° 0.7 mm 1 mps 634 mmHg 97%
    03:00 +12°C° 0.7 mm 1 mps 633 mmHg 97%
    04:00 +12°C° 0.7 mm 1 mps 632 mmHg 97%
    05:00 +12°C° 0.7 mm 1 mps 632 mmHg 95%
    06:00 +13°C° 0.7 mm 1 mps 632 mmHg 93%
    07:00 +14°C° 0.7 mm 1 mps 632 mmHg 91%
    08:00 +14°C° 1 mm 1 mps 632 mmHg 90%
    09:00 +14°C° 1 mm 1 mps 631 mmHg 88%
    10:00 +14°C° 1 mm 1 mps 631 mmHg 87%
    11:00 +14°C° 2 mm 1 mps 631 mmHg 88%
    12:00 +13°C° 2 mm 2 mps 631 mmHg 89%
    13:00 +13°C° 2 mm 2 mps 630 mmHg 91%
    14:00 +12°C° 2.3 mm 2 mps 630 mmHg 92%
    15:00 +12°C° 2.3 mm 2 mps 630 mmHg 94%
    16:00 +10°C° 2.3 mm 2 mps 630 mmHg 96%
    17:00 +10°C° 1.7 mm 2 mps 630 mmHg 96%
    18:00 +9°C° 1.7 mm 2 mps 630 mmHg 96%
    19:00 +9°C° 1.7 mm 2 mps 630 mmHg 97%
    20:00 +9°C° 0.4 mm 2 mps 630 mmHg 97%
    21:00 +8°C° 0.4 mm 2 mps 630 mmHg 96%
    22:00 +8°C° 0.4 mm 2 mps 630 mmHg 96%
    23:00 +7°C° 0.1 mm 2 mps 630 mmHg 96%

    25 July, Tuesday

    Time Temperature Precipitation Wind Pressure Humidity
    00:00 +7°C° 0.1 mm 2 mps 630 mmHg 96%
    01:00 +6°C° 0.1 mm 2 mps 629 mmHg 96%
    02:00 +6°C° 0.1 mm 2 mps 629 mmHg 96%
    03:00 +6°C° 0.1 mm 2 mps 629 mmHg 96%
    04:00 +6°C° 0.1 mm 2 mps 629 mmHg 96%
    05:00 +6°C° 0.3 mm 2 mps 629 mmHg 94%
    06:00 +7°C° 0.3 mm 2 mps 629 mmHg 93%
    07:00 +7°C° 0.3 mm 2 mps 629 mmHg 92%
    08:00 +8°C° 0.3 mm 2 mps 629 mmHg 88%
    09:00 +9°C° 0.3 mm 2 mps 630 mmHg 84%
    10:00 +10°C° 0.3 mm 2 mps 630 mmHg 80%
    11:00 +12°C° 0.4 mm 2 mps 630 mmHg 75%
    12:00 +13°C° 0.4 mm 2 mps 630 mmHg 70%
    13:00 +14°C° 0.4 mm 2 mps 631 mmHg 65%
    14:00 +13°C° 0.5 mm 3 mps 631 mmHg 64%
    15:00 +13°C° 0.5 mm 3 mps 630 mmHg 64%
    16:00 +13°C° 0.5 mm 3 mps 630 mmHg 63%
    17:00 +13°C° 0.3 mm 2 mps 630 mmHg 67%
    18:00 +12°C° 0.3 mm 2 mps 630 mmHg 71%
    19:00 +10°C° 0.3 mm 2 mps 630 mmHg 74%
    20:00 +9°C° 0.1 mm 2 mps 630 mmHg 80%
    21:00 +8°C° 0.1 mm 2 mps 629 mmHg 85%
    22:00 +7°C° 0.1 mm 2 mps 629 mmHg 90%
    23:00 +7°C° 0 mm 1 mps 629 mmHg 90%

    26 July, Wednesday

    Time Temperature Precipitation Wind Pressure Humidity
    00:00 +7°C° 0 mm 1 mps 629 mmHg 91%
    01:00 +6°C° 0 mm 1 mps 628 mmHg 92%
    02:00 +6°C° 0 mm 1 mps 628 mmHg 92%
    03:00 +6°C° 0 mm 1 mps 628 mmHg 92%
    04:00 +6°C° 0 mm 1 mps 628 mmHg 92%
    05:00 +7°C° 0.1 mm 1 mps 628 mmHg 88%
    06:00 +8°C° 0.1 mm 1 mps 629 mmHg 83%
    07:00 +9°C° 0.1 mm 1 mps 629 mmHg 78%
    08:00 +10°C° 0.1 mm 2 mps 630 mmHg 74%
    09:00 +12°C° 0.1 mm 2 mps 630 mmHg 70%
    10:00 +13°C° 0.1 mm 2 mps 631 mmHg 65%
    11:00 +14°C° 0.3 mm 2 mps 631 mmHg 63%
    12:00 +14°C° 0.3 mm 2 mps 631 mmHg 60%
    13:00 +14°C° 0.3 mm 3 mps 631 mmHg 57%
    14:00 +14°C° 0.2 mm 3 mps 631 mmHg 60%
    15:00 +13°C° 0.2 mm 3 mps 631 mmHg 63%
    16:00 +13°C° 0.2 mm 3 mps 631 mmHg 66%
    17:00 +12°C° 0.2 mm 3 mps 631 mmHg 72%
    18:00 +12°C° 0.2 mm 2 mps 630 mmHg 78%
    19:00 +10°C° 0.2 mm 2 mps 630 mmHg 84%
    20:00 +9°C° 0.2 mm 2 mps 630 mmHg 87%
    21:00 +8°C° 0.2 mm 2 mps 630 mmHg 90%
    22:00 +7°C° 0.2 mm 2 mps 630 mmHg 93%
    23:00 +7°C° 0.3 mm 2 mps 630 mmHg 92%

    27 July, Thursday

    Time Temperature Precipitation Wind Pressure Humidity
    00:00 +7°C° 0.3 mm 2 mps 630 mmHg 92%
    01:00 +7°C° 0.3 mm 2 mps 630 mmHg 91%
    02:00 +7°C° 0.4 mm 2 mps 630 mmHg 91%
    03:00 +7°C° 0.4 mm 2 mps 630 mmHg 90%
    04:00 +8°C° 0.4 mm 1 mps 630 mmHg 90%
    05:00 +9°C° 0.2 mm 1 mps 630 mmHg 88%
    06:00 +9°C° 0.2 mm 1 mps 631 mmHg 86%
    07:00 +10°C° 0.2 mm 1 mps 631 mmHg 84%
    08:00 +12°C° 0.1 mm 1 mps 632 mmHg 77%
    09:00 +13°C° 0.1 mm 1 mps 632 mmHg 70%
    10:00 +15°C° 0.1 mm 2 mps 633 mmHg 64%
    11:00 +16°C° 0.1 mm 2 mps 633 mmHg 59%
    12:00 +17°C° 0.1 mm 2 mps 633 mmHg 54%
    13:00 +18°C° 0.1 mm 2 mps 633 mmHg 49%
    14:00 +18°C° 0.2 mm 2 mps 633 mmHg 52%
    15:00 +17°C° 0.2 mm 2 mps 633 mmHg 56%
    16:00 +17°C° 0.2 mm 2 mps 633 mmHg 60%
    17:00 +16°C° 0.5 mm 2 mps 633 mmHg 69%
    18:00 +14°C° 0.5 mm 1 mps 633 mmHg 78%
    19:00 +13°C° 0.5 mm 1 mps 633 mmHg 87%
    20:00 +12°C° 1.3 mm 1 mps 633 mmHg 90%
    21:00 +12°C° 1.3 mm 1 mps 634 mmHg 93%
    22:00 +11°C° 1.3 mm 1 mps 634 mmHg 95%
    23:00 +11°C° 1 mm 1 mps 634 mmHg 96%
    Show more